Погода в Варене

Литва     54°12′48″N   24°34′42″E
темп.,
°C
ветер,
м/с
пор.,
м/с
влажн.,
%
обл.,
%
осадки,
мм/ч
давл.,
гПа
погр.,
м
18 августа, чт
чт1800:00+19в24773 0.0 101474
03:00+18в22805 0.0 101534
06:00+17в24845 0.0 101485
09:00+23вюв25645 0.0 1015351
12:00+27вюв45495 0.0 10151117
15:00+29вюв45425 0.0 10151558
18:00+28в454664 0.0 10151520
21:00+22в2672100 0.0 1015125
19 августа, пт
пт1900:00+20в31075100 0.0 1016230
03:00+19вюв297771 0.0 1016207
06:00+18вюв387899 0.0 1016173
09:00+22вюв3762100 0.0 1017317
12:00+27вюв4745100 0.0 1017830
15:00+29вюв4640100 0.0 10161422
18:00+28вюв3644100 0.0 10161533
21:00+23в41162100 0.0 1015347
20 августа, сб
сб2000:00+21вюв413685 0.0 1015428
03:00+19вюв312755 0.0 1016370
06:00+18вюв410845 0.0 1016311
09:00+20вюв477212 0.0 1016427
12:00+24юв565798 0.0 1016878
15:00+26юв455186 0.0 10151289
18:00+26юв345196 0.0 10151235
21:00+20в497488 0.0 1015312
21 августа, вс
вс2100:00+18вюв4117717 0.0 1015351
03:00+16юв288421 0.0 1015206
06:00+15юв238747 0.0 101567
09:00+20вюв23666 0.0 1014333
12:00+25вюв34525 0.0 10141016
15:00+27вюв44455 0.0 10131339
18:00+26вюв344919 0.0 10121300
21:00+20всв257699 0.0 101281
22 августа, пн
пн2200:00+19в388390 0.0 1012174
03:00+18в3107636 0.0 1012221
06:00+19вюв387794 0.0 1011205
09:00+22юв48645 0.0 1012377
12:00+27юв57435 0.0 1012841
15:00+29юв45395 0.0 10121406
18:00+29юв35425 0.0 10121296
21:00+22всв37720 0.0 1012121